SCP
0 -0 -0 -0 -0 -0 -0 -0 0 -0 -0 -0 -0 -0 -0 -0 -0 -0 -0 -0 -0 -0 -0 -0 -0 -0 -0 -0 -0 -0 -0 -0 -0 -0 -0 -0 -0 0 0 0 0 0 0
-0 -0 -0 -0 -0 -0 -0 -0 -0 -0 -0 -0 -0 0 0 -0 -0 -0 -0 -0 -0 -0 -0 -0 -0 -0 -0 -0 -0 -0 -0 -0 -0 -0 -0 -0 -0 -0 -0 -0 -0 0 -0
-0 -0 -0 -0 -0 -0 -0 -0 -0 -0 -0 -0 -0 -0 0 0 0 0 0 -0 -0 -0 -0 -0 -0 -0 -0 -0 -0 -0 -0 -0 -0 -0 0 0 0 0 -0 -0 -0 -0 -0
0 0 0 -0 -0 -0 -0 -0 -0 -0 -0 -0 -0 -0 -0 -0 -0 0 -0 -0 -0 -0 -0 -0 -0 -0 -0 -0 -0 -0 -0 -0 -0 -0 0 0 0 0 0 0 -0 -0 -0
0 0 0 0 -0 -0 -0 -0 -0 -0 -0 -0 -0 -0 -0 -0 -0 -0 -0 -0 -0 -0 -0 -0 -0 -0 -0 -0 -0 -0 -0 -0 -0 -0 0 0 0 0 -0 -0 -0 -0 0
0 0 0 0 0 0 0 -0 -0 -0 -0 -0 -0 -0 -0 -0 -0 -0 -0 -0 -0 0 0 0 0 0 0 0 -0 -0 -0 -0 -0 0 0 0 0 -0 -0 -0 -0 -0 -0
0 0 0 0 0 0 0 0 -0 -0 0 -0 -0 -0 -0 -0 -0 -0 -0 -0 -0 -0 0 0 0 0 0 0 -0 -0 -0 -0 0 0 0 0 0 -0 -0 -0 -0 -0 -0
-0 0 0 0 0 -0 0 0 -0 0 -0 -0 -0 -0 -0 0 0 0 -0 0 0 0 0 0 0 0 0 -0 -0 -0 -0 -0 0 0 0 0 0 0 -0 -0 -0 -0 -0
0 0 0 0 0 0 0 -0 0 0 0 0 0 0 0 0 0 0 0 0 0 0 0 0 0 0 0 0 0 0 0 0 0 0 0 0 0 0 0 0 0 0 0
0 0 0 0 0 0 0 -0 0 0 0 0 0 0 0 0 0 0 0 0 0 0 0 0 0 0 0 0 0 0 0 0 0 0 0 0 0 0 0 0 0 0 0
0 0 0 0 0 0 0 0 0 0 0 0 0 0 0 0 0 0 0 0 0 0 0 0 0 0 0 0 0 0 0 0 0 0 0 0 0 0 0 0 0 0 0
0 0 0 0 0 0 0 0 0 0 0 0 0 0 0 0 0 0 0 0 0 0 0 0 0 0 0 0 0 0 0 0 0 0 0 0 0 0 0 0 0 0 0
0 0 0 0 0 0 0 0 0 0 0 0 0 0 0 0 0 0 0 0 0 0 0 0 0 0 0 0 0 0 0 0 0 0 0 0 0 0 0 0 0 0 0
0 0 0 0 0 0 0 0 0 0 0 0 0 0 0 0 0 0 0 0 0 0 0 0 0 0 0 0 0 0 0 0 0 0 0 0 0 0 0 0 0 0 0
0 0 0 0 0 0 0 0 0 0 0 0 0 0 0 0 0 0 0 0 0 0 0 0 0 0 0 0 0 0 0 0 0 0 0 0 0 0 0 0 0 0 0
0 0 0 0 0 0 0 0 0 0 0 0 0 0 0 0 0 0 0 0 0 0 0 0 0 0 0 0 0 0 0 0 0 0 0 0 0 0 0 0 0 0 0
0 0 0 0 0 0 0 0 0 0 0 0 0 0 0 0 0 0 0 0 0 0 0 0 0 0 0 0 0 0 0 0 0 0 0 0 0 0 0 0 0 0 0
0 0 0 0 0 0 0 0 0 0 0 0 0 0 0 0 0 0 0 0 0 0 0 0 0 0 0 0 0 0 0 0 0 0 0 0 0 0 0 0 0 0 0
0 0 0 0 0 0 0 0 0 0 0 0 0 0 0 0 0 0 0 0 0 0 0 0 0 0 0 0 0 0 0 0 0 0 0 0 0 0 0 0 0 0 0
0 0 0 0 0 0 0 0 0 0 0 0 0 0 0 0 0 0 0 0 0 0 0 0 0 0 0 0 0 0 0 0 0 0 0 0 0 0 0 0 0 0 0
0 0 0 0 0 0 0 0 0 0 0 0 0 0 0 0 0 0 0 0 0 0 0 0 0 0 0 0 0 0 0 0 0 0 0 0 0 0 0 0 0 0 0
0 0 0 0 0 0 0 0 0 0 0 0 0 0 0 0 0 0 0 0 0 0 0 0 0 0 0 0 0 0 0 0 0 0 0 0 0 0 0 0 0 0 0
0 0 0 0 0 0 0 0 0 0 0 0 0 0 0 0 0 0 0 0 0 0 0 0 0 0 0 0 0 0 0 0 0 0 0 0 0 0 0 0 0 0 0
0 0 0 0 0 0 0 0 0 0 0 0 0 0 0 0 0 0 0 0 0 0 0 0 0 0 0 0 0 0 0 0 0 0 0 0 0 0 0 0 0 0 0
0 0 0 0 0 0 0 0 0 0 0 0 0 0 0 0 0 0 0 0 0 0 0 0 0 0 0 0 0 0 0 0 0 0 0 0 0 0 0 0 0 0 0
-0 -0 0 0 0 0 0 0 0 0 0 0 0 0 0 0 0 0 0 0 0 0 0 0 0 0 0 0 0 0 0 0 0 0 0 0 0 0 0 0 0 0 0
Wind_Speed_500mb
44 39 33 34 37 31 32 30 27 25 25 23 22 21 19 18 16 15 15 13 11 10 11 10 7 2 4 5 5 4 3 4 3 3 3 6 9 8 10 11 14 13 13
34 40 35 34 36 35 32 30 27 27 26 25 24 24 22 21 20 20 18 14 15 13 10 9 8 8 10 11 9 7 5 4 3 1 0 2 6 9 5 7 12 13 10
36 36 36 34 37 40 34 30 27 26 25 24 21 22 27 26 22 19 18 17 17 17 15 14 12 13 15 15 12 9 10 8 6 4 2 2 3 5 3 1 3 6 8
31 35 36 36 33 34 32 34 31 28 30 30 33 27 25 25 22 20 18 16 18 20 19 16 17 17 18 19 18 16 15 13 10 8 7 5 3 4 6 7 8 8 7
29 33 35 40 39 37 35 37 38 37 37 34 29 23 24 21 19 19 20 20 22 21 20 18 17 16 17 17 17 16 16 16 15 13 10 9 6 4 6 10 12 11 9
28 35 37 38 41 39 39 40 37 36 31 30 24 24 23 21 21 20 19 19 17 18 18 16 15 13 10 11 11 13 14 14 15 15 14 12 9 5 3 10 12 11 9
30 37 40 40 42 42 41 40 34 32 31 28 28 26 24 22 20 19 19 18 17 16 12 8 5 3 4 4 4 5 7 9 12 14 14 16 18 19 18 14 14 13 14
31 38 42 43 42 41 41 39 34 35 30 28 28 23 23 22 22 21 19 17 14 11 8 6 3 1 2 2 3 4 6 8 8 9 13 17 21 24 24 26 26 18 19
35 39 45 45 44 42 41 39 38 35 32 30 27 26 25 24 23 22 20 19 17 14 10 6 4 1 2 5 5 7 6 8 8 9 10 14 20 25 26 28 28 26 25
39 42 48 47 47 46 44 42 41 37 33 31 30 28 26 26 24 22 20 17 15 12 9 7 3 3 5 7 8 7 7 8 8 9 11 13 17 22 25 27 29 30 30
45 48 52 54 53 51 49 47 44 42 38 36 35 32 30 28 26 24 22 21 17 13 9 6 4 4 5 5 6 8 9 11 12 11 12 14 16 19 22 24 25 25 25
48 50 54 58 58 56 54 53 49 48 44 42 38 34 33 32 30 28 25 23 20 17 13 10 7 6 6 8 10 10 11 13 14 15 15 15 17 20 22 22 24 27 27
48 55 56 58 61 61 60 58 56 54 50 48 43 40 39 38 34 31 29 26 23 19 16 12 10 8 8 10 12 14 15 15 16 17 16 16 17 19 20 21 23 24 26
60 59 60 62 63 64 64 64 61 60 57 54 50 48 47 44 40 37 34 30 26 23 19 15 11 10 10 11 13 15 17 17 18 18 17 17 17 17 18 19 20 21 21
71 65 64 65 67 67 68 68 68 67 65 59 56 54 52 49 46 43 40 37 33 28 22 17 14 12 11 12 14 16 17 18 18 19 20 18 18 17 17 17 18 19 16
71 73 70 71 70 71 73 72 72 72 69 67 64 60 58 55 52 48 46 42 37 33 27 22 18 15 14 14 14 15 17 19 20 20 20 17 14 14 14 16 13 2 6
71 70 73 73 75 77 77 76 76 75 75 74 71 67 65 62 58 55 51 48 43 38 32 26 22 19 17 15 15 16 17 18 18 17 16 15 12 11 9 9 15 11 8
71 75 75 76 80 83 83 81 81 79 79 79 76 74 71 68 65 61 58 54 48 42 36 31 26 23 19 16 15 15 15 17 17 16 10 6 3 2 4 5 4 6 9
70 71 75 82 86 87 88 89 86 84 84 84 81 81 77 74 71 68 63 58 54 48 41 36 32 28 24 20 17 17 16 15 15 12 9 7 8 8 6 6 7 7 10
89 82 78 79 85 90 93 95 94 92 92 90 88 88 83 81 77 73 68 65 61 55 49 44 38 34 29 25 22 21 18 15 12 12 10 8 7 9 9 7 4 11 18
89 95 98 89 88 93 100 104 105 104 104 100 96 94 91 87 84 79 74 72 67 61 53 47 45 41 35 30 25 21 17 16 17 19 18 6 7 7 6 6 10 17 19
74 75 86 95 94 98 101 105 108 107 109 103 99 101 99 95 90 85 81 78 71 67 63 59 53 46 41 36 28 22 14 18 26 29 28 17 16 7 3 11 15 17 21
66 64 70 77 87 95 104 106 112 112 107 109 112 111 107 100 95 90 87 81 76 72 68 61 55 50 46 41 35 24 12 15 17 23 29 27 21 17 12 14 12 17 15
69 57 59 69 75 81 97 108 113 118 120 116 114 111 107 104 101 98 93 87 82 77 73 66 60 57 52 48 40 36 33 30 20 14 23 29 24 27 21 21 21 19 18
67 59 51 55 66 78 90 101 109 116 116 114 113 108 107 107 105 101 97 92 88 83 77 72 68 65 60 55 50 42 38 35 35 34 26 29 29 26 26 20 21 22 21
78 68 52 57 64 74 84 97 105 108 112 116 116 104 104 108 107 104 99 96 91 87 82 77 72 70 65 59 54 50 45 41 38 37 36 36 33 33 25 26 25 23 25
Wind_Direction_500mb
186 183 179 178 175 187 185 184 184 182 183 187 187 188 189 180 180 184 188 191 201 219 239 254 270 298 297 290 296 293 331 329 357 26 36 47 48 43 47 20 32 31 32
185 178 179 178 177 182 195 188 189 194 192 190 180 187 194 200 200 201 206 209 196 195 222 235 252 270 270 275 289 304 304 298 296 283 36 78 68 48 71 34 41 39 20
186 188 180 179 182 188 196 192 191 191 192 199 201 209 212 217 215 217 214 213 225 239 254 262 276 281 287 285 289 287 282 281 281 285 251 205 164 133 136 85 61 13 5
186 190 179 172 182 186 187 187 190 198 198 203 211 221 222 220 219 225 228 228 234 246 259 275 283 284 280 281 282 275 270 269 262 259 247 239 204 97 271 264 273 290 329
186 190 187 180 177 179 181 187 193 199 201 204 212 218 224 235 236 238 241 243 251 263 276 284 284 282 285 287 286 282 269 258 253 248 246 248 232 252 323 280 270 283 294
194 193 196 195 195 196 198 203 210 205 209 217 223 228 236 240 240 241 241 243 248 256 266 277 283 290 295 299 301 295 282 272 261 249 240 241 230 166 219 290 264 263 271
208 201 200 203 205 205 207 214 221 220 224 224 225 226 230 230 229 229 233 238 243 246 247 246 257 291 309 324 341 328 315 298 282 266 249 238 234 230 235 253 271 255 245
214 210 206 208 211 213 216 221 227 227 231 230 230 228 224 222 226 230 233 236 231 221 206 196 203 198 276 317 326 324 320 313 310 292 266 247 241 244 249 255 274 284 282
214 214 214 214 215 218 222 225 229 229 226 225 225 224 222 223 225 226 219 213 208 204 202 206 213 241 337 347 350 345 327 314 311 300 282 265 254 254 256 263 275 276 278
221 220 219 220 219 221 224 226 228 229 225 223 225 228 227 224 219 217 214 211 212 210 211 210 236 304 331 345 348 343 325 311 303 290 282 278 272 270 274 274 274 276 278
225 224 223 222 224 225 226 228 227 226 227 227 227 225 223 224 219 214 211 211 212 214 224 239 272 302 324 335 331 326 324 315 301 289 278 274 269 272 277 282 285 286 282
234 232 227 226 227 227 228 228 227 228 229 231 230 229 225 222 217 218 215 216 217 217 224 237 256 284 313 330 337 336 331 320 308 299 290 279 271 271 275 282 287 287 289
248 235 234 231 229 230 230 230 229 230 230 231 231 229 228 226 225 224 221 220 219 224 234 243 257 277 305 322 327 328 326 319 311 305 295 282 274 274 278 277 276 282 286
248 243 238 235 233 232 230 232 232 232 232 232 231 229 229 228 226 224 222 222 225 227 232 243 260 282 298 313 323 325 324 321 317 305 292 280 270 268 267 268 276 277 283
253 247 242 239 237 236 234 234 232 232 234 234 233 232 230 228 227 224 224 224 226 230 237 246 259 271 286 304 317 322 324 325 323 314 307 298 283 268 260 257 262 275 289
258 253 246 243 240 239 238 236 236 234 233 233 233 231 230 228 226 225 225 225 227 231 235 242 250 262 277 292 305 312 321 329 329 324 316 309 297 280 261 262 259 134 95
263 259 255 249 245 242 241 239 238 237 235 234 233 231 229 228 227 225 225 226 227 227 231 236 243 252 260 274 289 303 316 323 324 317 305 294 285 266 249 197 133 165 135
269 261 257 251 248 246 243 242 241 238 236 235 234 232 230 229 227 226 225 225 228 229 231 233 239 246 254 265 275 285 298 313 317 310 296 281 261 212 138 176 223 254 275
279 273 263 255 251 248 245 242 241 240 238 237 234 233 231 230 228 228 227 226 228 230 232 236 242 249 257 263 273 284 292 300 301 283 257 255 284 279 275 277 282 290 316
279 272 268 262 255 249 245 243 241 239 236 235 234 234 232 231 229 228 226 227 228 228 231 236 240 247 252 259 269 278 285 287 274 236 234 261 267 272 276 280 289 308 309
279 273 270 262 261 251 240 238 237 238 236 233 232 232 231 231 230 229 228 228 229 230 233 234 238 241 247 253 259 265 271 268 231 219 217 244 243 225 223 238 282 296 305
294 288 277 269 260 255 248 243 238 237 237 236 234 232 229 228 228 229 229 229 230 229 229 231 234 238 243 247 247 254 253 234 231 229 228 257 218 213 240 311 310 306 313
304 300 287 279 270 258 248 240 238 236 236 233 232 230 227 227 227 228 229 230 231 230 231 234 236 238 240 242 243 235 218 226 209 213 239 240 230 234 288 306 302 312 319
322 315 305 284 270 260 248 243 240 238 235 237 235 234 230 227 227 227 227 228 229 230 231 233 234 236 238 241 241 242 245 245 223 233 233 235 243 251 277 301 304 309 318
332 313 303 292 271 260 249 244 242 240 242 240 237 234 231 230 228 227 227 226 227 229 230 231 233 234 237 238 241 242 241 244 245 241 248 245 249 260 283 286 299 311 319
349 336 303 286 276 259 252 246 244 243 240 238 236 233 232 230 229 228 228 227 229 229 229 231 233 235 235 237 239 241 243 243 248 249 252 258 262 268 275 292 300 310 320
Wind_Speed_850mb
44 39 33 34 37 31 32 30 27 25 25 23 22 21 19 18 16 15 15 13 11 10 11 10 7 2 4 5 5 4 3 4 3 3 3 6 9 8 10 11 14 13 13
34 40 35 34 36 35 32 30 27 27 26 25 24 24 22 21 20 20 18 14 15 13 10 9 8 8 10 11 9 7 5 4 3 1 0 2 6 9 5 7 12 13 10
36 36 36 34 37 40 34 30 27 26 25 24 21 22 27 26 22 19 18 17 17 17 15 14 12 13 15 15 12 9 10 8 6 4 2 2 3 5 3 1 3 6 8
31 35 36 36 33 34 32 34 31 28 30 30 33 27 25 25 22 20 18 16 18 20 19 16 17 17 18 19 18 16 15 13 10 8 7 5 3 4 6 7 8 8 7
29 33 35 40 39 37 35 37 38 37 37 34 29 23 24 21 19 19 20 20 22 21 20 18 17 16 17 17 17 16 16 16 15 13 10 9 6 4 6 10 12 11 9
28 35 37 38 41 39 39 40 37 36 31 30 24 24 23 21 21 20 19 19 17 18 18 16 15 13 10 11 11 13 14 14 15 15 14 12 9 5 3 10 12 11 9
30 37 40 40 42 42 41 40 34 32 31 28 28 26 24 22 20 19 19 18 17 16 12 8 5 3 4 4 4 5 7 9 12 14 14 16 18 19 18 14 14 13 14
31 38 42 43 42 41 41 39 34 35 30 28 28 23 23 22 22 21 19 17 14 11 8 6 3 1 2 2 3 4 6 8 8 9 13 17 21 24 24 26 26 18 19
35 39 45 45 44 42 41 39 38 35 32 30 27 26 25 24 23 22 20 19 17 14 10 6 4 1 2 5 5 7 6 8 8 9 10 14 20 25 26 28 28 26 25
39 42 48 47 47 46 44 42 41 37 33 31 30 28 26 26 24 22 20 17 15 12 9 7 3 3 5 7 8 7 7 8 8 9 11 13 17 22 25 27 29 30 30
45 48 52 54 53 51 49 47 44 42 38 36 35 32 30 28 26 24 22 21 17 13 9 6 4 4 5 5 6 8 9 11 12 11 12 14 16 19 22 24 25 25 25
48 50 54 58 58 56 54 53 49 48 44 42 38 34 33 32 30 28 25 23 20 17 13 10 7 6 6 8 10 10 11 13 14 15 15 15 17 20 22 22 24 27 27
48 55 56 58 61 61 60 58 56 54 50 48 43 40 39 38 34 31 29 26 23 19 16 12 10 8 8 10 12 14 15 15 16 17 16 16 17 19 20 21 23 24 26
60 59 60 62 63 64 64 64 61 60 57 54 50 48 47 44 40 37 34 30 26 23 19 15 11 10 10 11 13 15 17 17 18 18 17 17 17 17 18 19 20 21 21
71 65 64 65 67 67 68 68 68 67 65 59 56 54 52 49 46 43 40 37 33 28 22 17 14 12 11 12 14 16 17 18 18 19 20 18 18 17 17 17 18 19 16
71 73 70 71 70 71 73 72 72 72 69 67 64 60 58 55 52 48 46 42 37 33 27 22 18 15 14 14 14 15 17 19 20 20 20 17 14 14 14 16 13 2 6
71 70 73 73 75 77 77 76 76 75 75 74 71 67 65 62 58 55 51 48 43 38 32 26 22 19 17 15 15 16 17 18 18 17 16 15 12 11 9 9 15 11 8
71 75 75 76 80 83 83 81 81 79 79 79 76 74 71 68 65 61 58 54 48 42 36 31 26 23 19 16 15 15 15 17 17 16 10 6 3 2 4 5 4 6 9
70 71 75 82 86 87 88 89 86 84 84 84 81 81 77 74 71 68 63 58 54 48 41 36 32 28 24 20 17 17 16 15 15 12 9 7 8 8 6 6 7 7 10
89 82 78 79 85 90 93 95 94 92 92 90 88 88 83 81 77 73 68 65 61 55 49 44 38 34 29 25 22 21 18 15 12 12 10 8 7 9 9 7 4 11 18
89 95 98 89 88 93 100 104 105 104 104 100 96 94 91 87 84 79 74 72 67 61 53 47 45 41 35 30 25 21 17 16 17 19 18 6 7 7 6 6 10 17 19
74 75 86 95 94 98 101 105 108 107 109 103 99 101 99 95 90 85 81 78 71 67 63 59 53 46 41 36 28 22 14 18 26 29 28 17 16 7 3 11 15 17 21
66 64 70 77 87 95 104 106 112 112 107 109 112 111 107 100 95 90 87 81 76 72 68 61 55 50 46 41 35 24 12 15 17 23 29 27 21 17 12 14 12 17 15
69 57 59 69 75 81 97 108 113 118 120 116 114 111 107 104 101 98 93 87 82 77 73 66 60 57 52 48 40 36 33 30 20 14 23 29 24 27 21 21 21 19 18
67 59 51 55 66 78 90 101 109 116 116 114 113 108 107 107 105 101 97 92 88 83 77 72 68 65 60 55 50 42 38 35 35 34 26 29 29 26 26 20 21 22 21
78 68 52 57 64 74 84 97 105 108 112 116 116 104 104 108 107 104 99 96 91 87 82 77 72 70 65 59 54 50 45 41 38 37 36 36 33 33 25 26 25 23 25
Wind_Direction_850mb
186 183 179 178 175 187 185 184 184 182 183 187 187 188 189 180 180 184 188 191 201 219 239 254 270 298 297 290 296 293 331 329 357 26 36 47 48 43 47 20 32 31 32
185 178 179 178 177 182 195 188 189 194 192 190 180 187 194 200 200 201 206 209 196 195 222 235 252 270 270 275 289 304 304 298 296 283 36 78 68 48 71 34 41 39 20
186 188 180 179 182 188 196 192 191 191 192 199 201 209 212 217 215 217 214 213 225 239 254 262 276 281 287 285 289 287 282 281 281 285 251 205 164 133 136 85 61 13 5
186 190 179 172 182 186 187 187 190 198 198 203 211 221 222 220 219 225 228 228 234 246 259 275 283 284 280 281 282 275 270 269 262 259 247 239 204 97 271 264 273 290 329
186 190 187 180 177 179 181 187 193 199 201 204 212 218 224 235 236 238 241 243 251 263 276 284 284 282 285 287 286 282 269 258 253 248 246 248 232 252 323 280 270 283 294
194 193 196 195 195 196 198 203 210 205 209 217 223 228 236 240 240 241 241 243 248 256 266 277 283 290 295 299 301 295 282 272 261 249 240 241 230 166 219 290 264 263 271
208 201 200 203 205 205 207 214 221 220 224 224 225 226 230 230 229 229 233 238 243 246 247 246 257 291 309 324 341 328 315 298 282 266 249 238 234 230 235 253 271 255 245
214 210 206 208 211 213 216 221 227 227 231 230 230 228 224 222 226 230 233 236 231 221 206 196 203 198 276 317 326 324 320 313 310 292 266 247 241 244 249 255 274 284 282
214 214 214 214 215 218 222 225 229 229 226 225 225 224 222 223 225 226 219 213 208 204 202 206 213 241 337 347 350 345 327 314 311 300 282 265 254 254 256 263 275 276 278
221 220 219 220 219 221 224 226 228 229 225 223 225 228 227 224 219 217 214 211 212 210 211 210 236 304 331 345 348 343 325 311 303 290 282 278 272 270 274 274 274 276 278
225 224 223 222 224 225 226 228 227 226 227 227 227 225 223 224 219 214 211 211 212 214 224 239 272 302 324 335 331 326 324 315 301 289 278 274 269 272 277 282 285 286 282
234 232 227 226 227 227 228 228 227 228 229 231 230 229 225 222 217 218 215 216 217 217 224 237 256 284 313 330 337 336 331 320 308 299 290 279 271 271 275 282 287 287 289
248 235 234 231 229 230 230 230 229 230 230 231 231 229 228 226 225 224 221 220 219 224 234 243 257 277 305 322 327 328 326 319 311 305 295 282 274 274 278 277 276 282 286
248 243 238 235 233 232 230 232 232 232 232 232 231 229 229 228 226 224 222 222 225 227 232 243 260 282 298 313 323 325 324 321 317 305 292 280 270 268 267 268 276 277 283
253 247 242 239 237 236 234 234 232 232 234 234 233 232 230 228 227 224 224 224 226 230 237 246 259 271 286 304 317 322 324 325 323 314 307 298 283 268 260 257 262 275 289
258 253 246 243 240 239 238 236 236 234 233 233 233 231 230 228 226 225 225 225 227 231 235 242 250 262 277 292 305 312 321 329 329 324 316 309 297 280 261 262 259 134 95
263 259 255 249 245 242 241 239 238 237 235 234 233 231 229 228 227 225 225 226 227 227 231 236 243 252 260 274 289 303 316 323 324 317 305 294 285 266 249 197 133 165 135
269 261 257 251 248 246 243 242 241 238 236 235 234 232 230 229 227 226 225 225 228 229 231 233 239 246 254 265 275 285 298 313 317 310 296 281 261 212 138 176 223 254 275
279 273 263 255 251 248 245 242 241 240 238 237 234 233 231 230 228 228 227 226 228 230 232 236 242 249 257 263 273 284 292 300 301 283 257 255 284 279 275 277 282 290 316
279 272 268 262 255 249 245 243 241 239 236 235 234 234 232 231 229 228 226 227 228 228 231 236 240 247 252 259 269 278 285 287 274 236 234 261 267 272 276 280 289 308 309
279 273 270 262 261 251 240 238 237 238 236 233 232 232 231 231 230 229 228 228 229 230 233 234 238 241 247 253 259 265 271 268 231 219 217 244 243 225 223 238 282 296 305
294 288 277 269 260 255 248 243 238 237 237 236 234 232 229 228 228 229 229 229 230 229 229 231 234 238 243 247 247 254 253 234 231 229 228 257 218 213 240 311 310 306 313
304 300 287 279 270 258 248 240 238 236 236 233 232 230 227 227 227 228 229 230 231 230 231 234 236 238 240 242 243 235 218 226 209 213 239 240 230 234 288 306 302 312 319
322 315 305 284 270 260 248 243 240 238 235 237 235 234 230 227 227 227 227 228 229 230 231 233 234 236 238 241 241 242 245 245 223 233 233 235 243 251 277 301 304 309 318
332 313 303 292 271 260 249 244 242 240 242 240 237 234 231 230 228 227 227 226 227 229 230 231 233 234 237 238 241 242 241 244 245 241 248 245 249 260 283 286 299 311 319
349 336 303 286 276 259 252 246 244 243 240 238 236 233 232 230 229 228 228 227 229 229 229 231 233 235 235 237 239 241 243 243 248 249 252 258 262 268 275 292 300 310 320